Tracking 22130 objects as of 21-Jan-2021
HD Live streaming from Space Station
objects crossing your sky now

STARLINK-1601

Track STARLINK-1601 now!
10-day predictions
STARLINK-1601 is classified as:


NORAD ID: 46120
Int'l Code: 2020-057D
Perigee: 553.3 km
Apogee: 555.4 km
Inclination: 53.1 °
Period: 95.6 minutes
Semi major axis: 6925 km
RCS: Unknown
Launch date: August 18, 2020
Source: United States (US)
Launch site: AIR FORCE EASTERN TEST RANGE (AFETR)
aabbcc
Your satellite tracking list
Your tracking list is empty




NASA's NSSDC Master Catalog

Two Line Element Set (TLE):
1 46120U 20057D   21021.42859669  .00000729  00000-0  67866-4 0  9997
2 46120  53.0566  85.9935 0001571  65.0266 295.0886 15.06396914 25007
Source of the keplerian elements: AFSPC